Tracking 31028 objects as of 17-Jul-2025
HD Live streaming from Space Station
objects crossing your sky now

STARLINK-11574

Track STARLINK-11574 now!
10-day predictions
STARLINK-11574 is classified as:


NORAD ID: 63010
Int'l Code: 2025-032F
Perigee: 361.9 km
Apogee: 365.3 km
Inclination: 43.0 °
Period: 91.7 minutes
Semi major axis: 6734 km
RCS: Unknown
Launch date: February 15, 2025
Source: United States (US)
Launch site: AIR FORCE EASTERN TEST RANGE (AFETR)
Your satellite tracking list
Your tracking list is empty




NASA's NSSDC Master Catalog

Two Line Element Set (TLE):
1 63010U 25032F   25197.23435143  .00140717  00000-0  10812-2 0  9995
2 63010  43.0038 180.7841 0002573 268.7133  91.3440 15.70848626 25012
Source of the keplerian elements: AFSPC